Temperature
19 19 19 19 19 19 19 18 18 18 18 18 18 18 18 18 18 18 18 18 18 18 18 18 18 18 18 18 18 18 18 18 18 18 18 18 18 18 18 18 18 18 18
19 19 19 19 19 19 18 18 18 18 18 18 18 18 18 18 18 18 18 18 18 18 18 18 18 18 18 18 18 18 18 18 18 18 18 18 18 18 18 18 18 18 17
19 19 19 19 19 18 18 18 18 18 18 18 18 18 18 18 18 18 18 18 18 18 18 18 18 18 18 18 18 18 18 18 18 18 18 18 18 17 18 18 18 18 18
19 19 19 19 19 18 18 18 18 18 18 18 18 18 18 18 18 18 18 18 18 18 18 18 18 18 18 18 18 18 18 18 18 18 18 18 17 17 18 18 17 17 17
19 19 19 19 19 18 18 18 18 18 18 18 18 18 18 18 18 18 18 18 18 18 18 18 18 18 18 18 18 18 17 17 17 17 17 17 18 18 17 17 18 17 17
19 19 19 19 19 18 18 18 18 18 18 18 18 18 18 18 18 18 18 18 18 18 18 18 18 18 18 18 18 17 17 17 17 17 17 17 17 17 17 17 17 18 17
20 19 19 19 19 18 18 18 18 18 18 18 18 18 18 18 18 18 18 18 18 18 18 18 18 18 18 18 17 17 17 17 17 18 17 18 18 17 17 17 17 17 17
20 19 19 19 19 19 18 18 18 18 18 18 18 18 18 18 18 18 18 18 18 18 18 18 18 18 18 17 17 17 17 17 18 18 17 18 18 18 17 17 17 17 17
20 19 19 19 19 19 18 18 18 18 18 18 18 18 18 18 18 18 18 18 18 18 18 18 18 18 17 17 17 17 17 17 18 18 18 18 18 18 17 17 17 17 17
19 19 19 19 19 19 18 18 18 18 18 18 18 18 18 18 18 18 18 18 18 18 18 18 17 17 17 17 17 17 17 17 18 18 18 18 18 18 17 17 17 17 17
19 19 19 19 19 19 18 18 18 18 18 18 18 18 18 18 18 18 18 18 18 18 18 18 17 17 17 17 17 17 17 17 18 18 18 18 18 18 18 17 17 17 17
19 19 19 19 19 19 18 18 18 18 18 18 18 18 18 18 18 18 18 18 18 18 18 17 17 17 17 17 17 17 17 17 18 18 17 18 18 18 18 17 17 17 17
19 19 19 19 19 18 18 18 18 18 18 18 18 18 18 18 18 18 18 18 18 18 18 18 18 18 17 17 17 17 18 18 18 18 18 18 18 18 17 17 17 17 17
19 19 19 19 18 18 18 18 18 18 18 18 18 17 18 18 18 18 18 18 18 18 18 18 17 18 17 17 17 17 18 18 18 17 17 18 18 17 17 17 17 17 17
19 19 19 19 18 18 18 18 18 18 18 18 18 18 18 18 18 18 18 18 18 18 18 18 18 18 18 18 17 17 18 18 17 17 17 18 18 17 18 17 17 17 17
19 19 19 19 18 18 18 18 18 18 18 18 18 18 18 18 18 18 18 18 18 18 18 18 18 18 18 18 18 17 17 18 17 17 17 17 17 17 17 17 17 17 17
20 19 19 19 18 18 18 18 18 18 18 18 18 18 18 18 18 18 18 18 18 18 18 18 18 18 18 18 18 17 17 17 17 17 17 17 17 17 17 17 17 17 17
20 19 19 19 19 18 18 18 18 18 18 18 18 18 18 18 18 18 18 18 18 18 18 18 18 18 18 18 18 17 17 17 17 17 17 17 17 17 17 17 17 17 17
20 19 19 19 19 18 18 18 18 18 18 18 18 18 18 18 18 18 18 18 18 18 18 18 18 18 18 18 18 17 17 17 17 17 17 17 17 17 17 17 17 17 17
20 19 19 19 19 18 18 18 18 18 18 18 18 18 18 18 18 18 18 18 18 18 18 18 18 18 18 17 17 17 17 17 17 17 17 17 17 17 17 17 17 16 16
20 19 19 19 19 18 18 18 18 18 18 18 18 18 18 18 18 18 18 18 18 18 18 18 17 17 17 17 17 17 17 17 17 17 17 17 17 17 17 17 17 16 16
20 20 19 19 19 19 19 19 18 18 18 18 18 18 18 18 18 18 18 18 18 18 18 18 18 18 17 17 17 17 17 17 17 17 17 17 17 17 17 17 16 16 16
21 20 20 19 19 19 19 18 18 18 18 18 18 18 18 18 18 18 18 18 18 18 18 18 18 18 18 18 17 17 17 17 17 17 17 17 17 17 17 16 16 16 16
21 21 20 20 19 19 19 18 18 18 18 18 18 18 18 18 18 18 18 18 18 18 18 18 18 18 18 18 17 17 17 17 17 16 16 17 16 16 16 16 16 16 16
22 21 20 20 20 19 19 19 18 18 18 18 18 18 18 18 18 18 18 18 18 18 18 18 18 17 17 17 17 17 17 17 17 17 16 16 16 16 16 16 16 16 16
22 21 21 20 20 19 19 19 19 19 19 18 18 18 18 18 18 18 18 18 18 18 18 18 18 18 17 17 17 17 17 17 17 17 17 16 16 16 16 16 16 16 16
Wind_Speed
2 4 8 9 10 10 11 12 12 13 14 15 15 15 15 16 16 16 16 16 17 18 19 18 18 19 19 20 21 21 21 20 21 22 21 21 20 19 18 18 17 16 18
6 6 9 9 10 11 11 12 13 13 14 14 15 15 15 15 15 16 16 16 17 18 18 18 18 19 20 20 20 19 20 20 21 21 20 19 19 18 17 17 16 15 17
7 7 9 10 10 11 11 12 13 13 13 14 14 15 14 15 15 16 16 16 17 18 18 18 18 20 20 19 19 19 19 19 19 19 18 16 16 17 17 17 16 17 16
8 8 9 10 11 11 12 12 13 13 13 14 14 14 15 14 15 15 15 17 17 17 18 18 18 19 19 18 17 18 18 18 18 17 14 13 14 16 17 16 16 16 16
7 8 10 12 11 11 12 12 13 13 14 14 14 14 14 14 14 15 16 17 17 17 18 18 19 19 18 17 16 16 16 16 15 14 12 12 13 16 16 16 15 15 15
7 8 11 12 12 12 12 12 12 13 13 14 14 14 14 14 14 15 16 17 18 18 17 18 19 18 16 16 15 15 15 14 13 12 12 12 13 15 15 15 15 14 14
7 7 10 12 12 12 13 13 12 13 13 13 14 14 14 14 15 16 16 17 18 17 17 18 18 16 15 14 13 13 12 12 11 11 11 12 13 15 15 14 14 14 13
9 7 9 10 10 12 12 12 12 12 12 13 13 13 13 14 16 17 17 17 17 17 16 15 15 14 13 12 11 11 11 11 11 10 11 11 13 14 14 14 14 13 13
8 7 6 7 8 10 11 11 11 12 12 12 13 13 13 13 15 15 15 16 16 16 14 13 12 12 11 10 9 9 9 10 11 10 11 11 14 15 14 14 13 13 12
7 6 5 6 6 7 9 10 11 12 12 11 12 12 12 12 13 14 13 14 14 14 13 12 10 10 9 8 7 7 8 9 9 9 9 11 14 15 14 13 13 12 12
7 5 5 5 5 6 8 9 10 11 10 10 10 11 10 9 9 10 12 12 13 12 11 10 9 8 7 6 5 5 6 7 8 8 10 13 15 15 14 13 13 12 11
7 6 5 5 5 6 6 7 6 7 7 7 7 8 8 8 8 9 10 11 11 10 9 8 7 5 5 3 3 4 5 8 8 8 11 14 15 14 14 13 13 12 11
8 7 5 6 6 5 4 6 5 5 5 6 6 7 8 7 7 6 6 7 7 7 5 5 4 2 2 2 2 3 5 6 8 9 11 14 15 14 13 13 12 11 11
7 6 6 6 6 6 6 6 5 4 4 4 6 8 8 5 5 5 4 5 5 4 4 3 2 2 2 3 3 4 5 5 7 8 11 15 15 14 13 13 12 11 11
7 6 6 6 6 6 5 5 6 5 5 6 6 7 8 6 4 5 4 4 4 4 4 3 2 2 2 2 4 5 5 6 7 8 10 14 14 13 12 12 12 11 10
7 7 7 7 6 6 5 4 4 5 6 6 6 7 9 7 6 4 4 4 3 4 4 4 3 3 2 2 2 4 5 6 6 7 8 11 12 12 12 11 11 11 10
8 8 8 8 6 6 6 5 5 5 7 5 6 8 8 8 7 5 4 3 3 4 4 4 3 2 2 2 1 2 4 5 6 7 8 9 10 11 11 11 11 10 10
8 8 8 8 7 6 6 5 4 5 6 5 6 7 8 7 7 6 4 3 4 4 3 3 3 3 2 1 1 1 2 4 5 7 7 8 8 8 10 11 11 11 10
10 9 7 7 7 6 5 5 5 4 5 5 6 6 7 7 7 6 3 3 4 3 3 3 3 3 3 2 1 1 0 1 3 5 5 7 8 8 8 9 11 11 10
9 8 7 7 7 6 5 4 4 4 3 4 5 6 7 7 7 6 4 3 4 3 2 2 3 2 2 3 2 1 1 0 1 2 4 5 6 8 8 7 8 8 9
8 8 7 7 6 5 4 4 4 3 3 2 3 6 7 7 7 6 4 3 3 3 3 4 3 3 2 2 3 2 2 2 0 1 2 3 4 7 8 8 8 7 7
9 8 8 8 7 6 5 4 4 4 3 3 2 3 6 6 6 6 4 3 3 3 3 4 3 2 1 2 3 2 1 3 3 1 1 3 3 4 5 8 8 8 7
10 10 9 8 7 6 6 4 4 3 2 1 1 2 3 6 7 6 5 4 4 4 4 4 4 4 3 1 2 3 3 2 1 2 1 1 2 2 3 5 7 7 7
12 10 9 8 7 6 6 6 6 5 4 4 3 3 3 5 6 6 6 5 4 4 4 4 3 3 4 2 1 2 2 4 3 0 2 1 1 2 3 3 5 6 6
12 10 9 8 7 6 6 7 7 5 4 3 3 3 3 3 4 5 5 5 4 4 4 4 3 3 3 3 3 1 1 1 2 3 2 1 1 1 2 2 3 5 6
10 9 9 9 7 7 7 7 7 7 6 5 4 4 3 2 2 3 4 5 5 4 4 4 4 4 4 3 3 3 3 3 3 3 3 2 2 2 1 1 3 4 6
Wind_Direction
153 144 111 104 100 99 98 95 94 92 96 98 99 100 104 114 117 118 120 122 128 128 126 123 123 123 124 125 127 127 125 125 126 125 123 121 121 120 119 117 114 113 114
152 142 119 111 106 102 101 100 98 97 97 100 101 102 103 114 116 116 118 120 125 129 128 123 122 124 124 125 126 127 126 127 128 125 124 122 123 123 121 120 117 120 119
133 132 124 116 111 108 106 104 102 101 99 100 102 104 105 113 117 118 119 120 124 125 124 122 123 124 123 124 125 127 129 130 127 125 122 120 124 126 124 123 122 122 121
132 132 124 119 116 112 110 108 108 106 103 101 102 106 108 111 116 119 119 120 121 123 124 124 125 125 126 127 127 128 130 130 129 125 121 122 124 126 125 125 126 124 123
125 127 128 122 118 114 113 113 113 111 108 105 103 105 107 110 114 116 117 119 120 120 123 125 127 128 129 130 129 130 128 127 127 123 120 122 126 130 129 129 128 127 126
126 126 127 125 121 118 117 115 115 114 112 110 107 107 106 111 116 116 116 119 120 119 121 126 128 130 131 134 133 131 131 127 123 121 122 126 132 136 135 134 132 131 131
129 132 131 126 121 121 122 121 119 117 115 114 111 109 108 112 117 118 117 116 118 119 120 126 130 132 134 134 134 133 132 127 122 124 127 133 139 140 140 139 137 137 136
136 134 132 131 127 126 125 124 126 123 120 118 116 113 111 112 118 120 119 119 120 121 122 124 132 135 137 140 136 130 129 129 127 127 133 139 144 144 145 144 143 142 142
134 134 136 138 137 134 132 130 129 129 128 125 122 120 118 118 119 121 122 123 124 127 128 127 131 133 136 139 135 129 131 132 128 133 140 144 149 151 150 151 150 149 149
136 145 150 141 138 143 141 136 134 134 133 132 129 127 126 125 127 128 129 131 130 133 134 135 137 138 140 140 135 130 133 136 135 139 145 154 155 155 157 157 156 156 156
142 151 151 141 139 142 145 141 142 138 138 137 134 133 132 134 136 137 139 137 137 137 138 140 142 143 145 142 136 130 126 131 136 145 157 162 161 161 161 161 160 160 160
155 160 154 153 155 158 150 139 140 141 144 143 143 143 140 144 148 146 150 146 145 144 143 144 147 146 142 140 138 133 130 138 146 155 162 166 167 166 164 164 163 164 163
158 156 158 160 162 163 150 143 147 150 150 154 152 153 149 145 148 148 152 153 153 152 149 145 149 150 153 172 170 153 146 146 155 161 167 171 172 170 168 168 168 169 171
145 149 150 150 152 155 150 150 162 163 162 162 162 155 149 145 142 146 153 159 163 162 154 154 161 179 196 197 187 169 156 153 160 164 171 176 174 172 171 172 173 174 176
142 148 149 142 140 145 147 161 158 165 166 166 160 155 152 147 146 152 156 164 172 173 168 163 168 172 172 176 171 154 149 155 159 167 174 175 174 173 175 178 178 179 184
145 148 149 146 145 142 144 146 150 163 161 160 159 155 153 153 151 150 150 159 172 182 183 179 171 155 145 129 117 135 149 154 151 157 167 172 173 177 180 183 184 187 191
150 146 147 150 144 142 144 143 143 154 154 156 161 154 151 153 153 149 145 156 173 176 171 167 160 142 139 123 114 125 142 150 157 163 166 169 176 183 187 189 191 193 194
146 145 152 150 142 139 138 135 137 144 145 151 154 153 153 155 154 146 146 160 174 166 159 147 142 128 125 123 117 106 130 150 164 170 169 169 173 181 191 197 197 198 200
150 148 148 144 146 144 140 134 133 140 145 152 154 156 161 160 158 150 149 164 163 143 142 155 140 138 138 135 137 130 125 149 166 174 169 173 178 182 187 198 203 203 205
152 148 145 146 151 144 130 117 113 118 134 148 155 165 166 168 163 155 154 161 148 132 131 134 139 142 147 152 129 92 23 291 156 172 182 176 183 186 188 192 197 201 207
150 145 146 149 155 145 137 137 138 149 159 158 166 165 167 166 162 155 150 149 141 143 153 149 141 137 132 119 93 48 8 357 358 221 181 171 175 184 185 188 188 194 205
160 155 152 157 159 159 159 156 155 154 161 168 171 166 171 166 163 163 156 159 153 148 147 148 143 137 155 142 133 115 30 359 359 354 161 176 184 177 179 185 187 192 199
165 164 164 165 161 162 155 136 123 105 94 111 158 180 185 172 169 166 163 160 159 158 168 173 161 157 174 196 165 155 158 205 297 346 331 151 169 168 175 171 180 186 188
175 170 166 167 166 163 153 147 149 154 167 189 180 183 186 176 174 173 172 166 167 163 168 182 167 163 159 182 216 202 181 166 164 199 336 341 152 175 183 176 167 170 174
175 171 171 169 171 169 162 162 158 161 173 169 160 168 187 190 183 180 176 174 173 169 174 180 170 167 168 178 189 186 148 140 145 157 202 275 331 263 205 184 167 171 174
171 171 171 170 175 172 168 168 167 166 167 160 167 176 189 192 196 190 175 175 176 175 182 185 185 179 186 188 193 183 172 171 183 168 186 204 225 253 231 207 178 176 179
Height
1519 1518 1518 1517 1516 1515 1514 1513 1512 1511 1510 1510 1510 1509 1509 1509 1510 1511 1512 1512 1513 1515 1516 1518 1520 1522 1525 1528 1531 1534 1537 1539 1542 1543 1546 1548 1550 1551 1553 1554 1556 1557 1558
1519 1519 1518 1518 1517 1516 1515 1515 1514 1513 1512 1512 1511 1511 1510 1510 1511 1512 1513 1514 1515 1516 1518 1519 1521 1523 1526 1530 1533 1536 1539 1541 1543 1545 1547 1549 1551 1553 1555 1556 1557 1558 1559
1520 1519 1519 1518 1518 1517 1517 1516 1515 1515 1514 1514 1513 1512 1512 1511 1512 1513 1514 1515 1516 1517 1519 1521 1522 1525 1528 1532 1535 1538 1540 1543 1544 1547 1549 1551 1553 1555 1556 1557 1559 1560 1561
1520 1520 1519 1519 1518 1518 1518 1517 1517 1516 1516 1515 1515 1514 1513 1513 1514 1515 1515 1517 1518 1519 1521 1522 1524 1527 1530 1534 1537 1540 1542 1545 1546 1548 1550 1553 1554 1556 1557 1559 1560 1561 1562
1521 1521 1520 1520 1519 1519 1518 1518 1518 1518 1518 1517 1517 1516 1515 1515 1515 1515 1516 1518 1519 1521 1523 1524 1527 1529 1532 1536 1539 1542 1544 1546 1548 1550 1552 1554 1556 1557 1559 1560 1561 1563 1563
1522 1522 1522 1521 1520 1520 1520 1520 1520 1520 1519 1519 1519 1518 1517 1517 1517 1517 1519 1520 1522 1524 1525 1527 1529 1533 1535 1538 1541 1543 1545 1547 1550 1552 1553 1555 1557 1559 1560 1561 1563 1564 1565
1523 1523 1523 1523 1522 1521 1521 1521 1521 1521 1521 1521 1521 1520 1520 1519 1519 1520 1522 1523 1525 1527 1529 1530 1533 1535 1538 1541 1543 1545 1547 1549 1551 1553 1555 1557 1558 1560 1561 1562 1564 1565 1566
1524 1524 1524 1524 1524 1523 1523 1523 1522 1522 1523 1523 1523 1523 1523 1522 1521 1523 1525 1527 1529 1531 1532 1534 1536 1539 1541 1543 1545 1547 1549 1551 1553 1555 1556 1558 1559 1561 1562 1563 1565 1566 1567
1525 1525 1525 1525 1525 1525 1525 1524 1524 1524 1525 1525 1525 1525 1526 1526 1526 1527 1529 1531 1532 1534 1536 1538 1539 1542 1544 1546 1547 1549 1551 1553 1554 1556 1558 1559 1560 1562 1563 1564 1565 1566 1567
1526 1526 1526 1526 1525 1525 1526 1526 1526 1526 1527 1527 1527 1528 1528 1529 1530 1531 1533 1534 1536 1538 1539 1541 1543 1545 1547 1548 1550 1551 1553 1554 1556 1557 1559 1560 1561 1562 1564 1565 1565 1566 1567
1527 1527 1527 1526 1526 1526 1527 1527 1527 1528 1529 1529 1529 1530 1530 1532 1533 1534 1536 1537 1539 1540 1542 1544 1546 1547 1549 1550 1552 1553 1554 1556 1557 1558 1560 1561 1562 1563 1564 1565 1566 1567 1568
1527 1527 1527 1527 1527 1527 1527 1528 1529 1530 1530 1531 1531 1532 1533 1534 1535 1537 1538 1540 1541 1543 1544 1546 1548 1549 1551 1552 1553 1555 1556 1557 1559 1559 1560 1561 1562 1563 1564 1565 1566 1567 1568
1527 1527 1527 1527 1527 1528 1529 1530 1530 1531 1532 1533 1533 1534 1535 1536 1538 1539 1540 1542 1543 1545 1546 1548 1549 1551 1552 1554 1555 1556 1557 1558 1559 1560 1561 1562 1563 1564 1564 1565 1566 1567 1568
1527 1527 1527 1528 1528 1529 1530 1531 1532 1533 1534 1534 1535 1536 1537 1538 1539 1541 1543 1544 1545 1546 1548 1549 1551 1552 1553 1555 1556 1557 1558 1559 1560 1561 1561 1562 1563 1564 1565 1565 1566 1567 1568
1527 1527 1528 1528 1529 1529 1530 1531 1532 1534 1535 1536 1537 1538 1539 1540 1541 1543 1544 1545 1547 1548 1549 1551 1552 1553 1554 1556 1557 1558 1558 1559 1560 1561 1561 1562 1563 1564 1565 1565 1566 1567 1568
1527 1527 1528 1529 1529 1530 1531 1532 1534 1535 1536 1537 1538 1539 1540 1541 1542 1544 1545 1547 1548 1550 1551 1552 1553 1554 1555 1556 1557 1558 1559 1560 1561 1561 1562 1562 1563 1564 1565 1565 1566 1567 1567
1526 1527 1528 1529 1530 1531 1532 1533 1535 1536 1537 1538 1540 1541 1542 1543 1544 1545 1546 1548 1549 1551 1552 1553 1554 1555 1556 1557 1558 1559 1560 1560 1561 1562 1562 1563 1563 1564 1565 1565 1566 1566 1567
1526 1527 1528 1529 1530 1531 1533 1534 1535 1537 1538 1539 1540 1541 1543 1544 1545 1546 1547 1549 1550 1551 1553 1554 1555 1556 1557 1558 1558 1559 1560 1561 1561 1562 1562 1563 1563 1564 1564 1565 1565 1566 1566
1526 1527 1528 1529 1530 1532 1533 1535 1536 1537 1538 1540 1541 1542 1543 1544 1545 1547 1548 1549 1550 1552 1553 1554 1555 1556 1557 1558 1559 1559 1560 1560 1561 1561 1562 1562 1563 1563 1564 1564 1565 1565 1565
1526 1527 1528 1529 1531 1532 1533 1535 1536 1538 1539 1540 1541 1542 1543 1544 1546 1547 1548 1549 1551 1552 1553 1554 1555 1556 1557 1558 1558 1559 1560 1560 1560 1560 1561 1561 1562 1562 1563 1563 1564 1564 1564
1526 1527 1528 1529 1530 1532 1533 1534 1536 1537 1539 1540 1541 1542 1543 1544 1545 1547 1548 1549 1551 1552 1553 1554 1554 1555 1556 1557 1558 1558 1559 1559 1559 1559 1560 1560 1561 1562 1562 1562 1562 1562 1562
1526 1527 1528 1529 1530 1531 1533 1534 1536 1537 1539 1540 1541 1542 1543 1544 1545 1547 1548 1549 1550 1551 1552 1553 1554 1554 1555 1556 1557 1557 1558 1559 1558 1558 1559 1559 1560 1560 1561 1561 1561 1561 1561
1525 1526 1527 1528 1529 1531 1533 1534 1536 1537 1538 1540 1540 1541 1543 1544 1545 1546 1548 1549 1550 1551 1551 1552 1553 1554 1554 1555 1556 1557 1557 1557 1557 1558 1558 1558 1559 1559 1560 1560 1560 1560 1560
1524 1526 1527 1528 1529 1531 1532 1534 1535 1536 1537 1538 1540 1541 1542 1543 1545 1546 1547 1548 1549 1550 1550 1551 1552 1553 1553 1554 1555 1555 1556 1556 1556 1556 1557 1557 1558 1558 1558 1558 1558 1558 1558
1523 1525 1527 1528 1529 1530 1532 1533 1534 1536 1537 1538 1540 1541 1542 1543 1544 1545 1546 1547 1548 1548 1549 1550 1550 1551 1552 1552 1553 1553 1554 1554 1554 1554 1555 1556 1556 1556 1556 1557 1557 1557 1557
1522 1524 1526 1527 1528 1529 1531 1532 1533 1535 1536 1537 1539 1540 1541 1542 1543 1544 1545 1545 1546 1547 1547 1548 1549 1549 1550 1550 1551 1551 1552 1552 1552 1552 1552 1553 1554 1554 1555 1555 1555 1555 1555